1273449627464,17.0593
1273449687464,17.1240
1273449747464,17.0703
1273449807464,17.0967
1273449867464,17.1324
1273449927464,17.0178
1273449987464,17.0856
1273450047463,17.1240
1273450107463,17.0588
1273450167463,17.0663
1273450227463,17.0709
1273450287463,17.0796
1273450347464,17.0529
1273450407464,17.1061
1273450467464,17.0290
1273450527464,17.0841
1273450587464,17.1166
1273450647464,17.0584
1273450707464,17.0551
1273450767464,17.1625
1273450827464,17.0935
1273450887464,17.0792
1273450947464,17.1150
1273451007464,17.1535
1273451067464,17.0669
1273451127464,17.1428
1273451187464,17.1074
1273451247464,17.1255
1273451307464,17.1470
1273451367464,17.1585
1273451427463,17.1162
1273451487463,17.1052
1273451547463,17.0925
1273451607463,17.1042
1273451667463,17.1082
1273451727464,17.1150
1273451787464,17.0844
1273451847464,17.0872
1273451907464,17.0398
1273451967464,17.0340
1273452027464,17.0467
1273452087464,17.0824
1273452147464,17.1603
1273452207464,17.0838
1273452267464,17.0626
1273452327464,17.0717
1273452387464,17.0645
1273452447464,17.0875
1273452507464,17.1007
1273452567464,17.1280
1273452627464,17.0368
1273452687464,17.0748
1273452747463,17.0553
1273452807463,17.0912
1273452867463,17.0820
1273452927463,17.0535
1273452987463,17.0857
1273453047464,17.1134
1273453107464,17.1115
1273453167464,17.0525
1273453227473,17.0209
1273453287473,17.1088
1273453347473,17.0220
1273453407473,17.0714
1273453467473,17.0724
1273453527473,17.0999
1273453587473,17.0632
1273453647473,17.0704
1273453707473,16.9953
1273453767473,16.9928
1273453827473,17.0595
1273453887473,17.0980
1273453947473,17.0649
1273454007473,17.0953
1273454067473,17.0036
1273454127473,17.0420
1273454187473,17.0201
1273454247473,17.0313
1273454307473,17.0994
1273454367473,17.0595
1273454427473,17.0750
1273454487473,17.0151
1273454547473,17.0574
1273454607473,17.0733
1273454667473,17.0428
1273454727473,17.0865
1273454787473,17.0254
1273454847473,17.0382
1273454907473,17.1009
1273454967473,17.0938
1273455027473,17.0283
1273455087473,17.0835
1273455147473,17.1206
1273455207473,17.0398
1273455267473,17.0730
1273455327473,17.1001
1273455387473,17.0548
1273455447473,17.0784
1273455507473,17.0355
1273455567473,17.0536
1273455627473,17.1384
1273455687473,17.1124
1273455747473,17.0925
1273455807473,17.0267
1273455867473,17.0618
1273455927473,17.0622
1273455987473,17.0591
1273456047473,17.1294
1273456107473,17.0929
1273456167473,17.0631
1273456227473,17.1309
1273456287473,17.0707
1273456347473,17.1031
1273456407473,17.1013
1273456467473,17.1246
1273456527473,17.0535
1273456587473,17.0412
1273456647473,17.0731
1273456707473,17.0199
1273456767473,17.0362
1273456827483,17.0269
1273456887483,16.9757
1273456947483,17.0547
1273457007483,17.0114
1273457067483,17.0369
1273457127483,17.0284
1273457187483,17.0460
1273457247483,17.1136
1273457307483,17.0547
1273457367483,17.0477
1273457427483,17.0478
1273457487483,16.9984
1273457547483,16.9695
1273457607483,16.9923
1273457667483,16.9985
1273457727483,16.9848
1273457787483,16.9933
1273457847483,16.9996
1273457907483,17.0207
1273457967483,16.9950
1273458027483,16.9450
1273458087483,17.0035
1273458147483,17.0218
1273458207483,16.9671
1273458267483,16.9651
1273458327483,17.0862
1273458387483,17.0193
1273458447483,16.9757
1273458507483,17.0123
1273458567483,17.0445
1273458627483,17.0130
1273458687483,16.9984
1273458747483,17.0980
1273458807483,17.0361
1273458867483,16.9628
1273458927483,17.0414
1273458987483,17.0457
1273459047483,17.0815
1273459107483,17.0515
1273459167483,17.0509
1273459227483,17.0534
1273459287483,17.0464
1273459347483,16.9952
1273459407483,17.0379
1273459467483,17.0656
1273459527483,17.0203
1273459587483,17.0141
1273459647483,17.1096
1273459707483,17.0298
1273459767483,17.0138
1273459827483,16.9985
1273459887483,17.0758
1273459947483,17.0726
1273460007483,17.0580
1273460067483,17.0286
1273460127483,17.0793
1273460187483,17.0512
1273460247483,17.0328
1273460307483,16.9889
1273460367483,17.0866
1273460427492,17.0596
1273460487492,16.9948
1273460547492,17.0015
1273460607492,16.9945
1273460667492,17.0637
1273460727492,17.0412
1273460787492,17.0691
1273460847492,17.0575
1273460907492,17.0416
1273460967492,17.0475
1273461027492,17.0953
1273461087492,17.0006
1273461147492,17.0568
1273461207492,17.0246
1273461267492,16.9909
1273461327492,17.0355
1273461387492,17.0444
1273461447492,17.0678
1273461507492,16.9759
1273461567492,17.0309
1273461627492,17.1253
1273461687492,17.0024
1273461747492,17.0686
1273461807492,17.0947
1273461867492,17.0485
1273461927492,17.0764
1273461987492,17.0716
1273462047492,17.0171
1273462107492,17.0962
1273462167492,17.0266
1273462227492,17.0626
1273462287492,17.0866
1273462347492,17.0629
1273462407492,17.0433
1273462467492,17.0556
1273462527492,17.0648
1273462587492,17.0624
1273462647492,17.0727
1273462707492,17.0453
1273462767492,17.1032
1273462827492,17.1313
1273462887492,17.0690
1273462947492,17.0342
1273463007492,17.0199
1273463067492,17.0897
1273463127492,17.0959
1273463187492,16.9978
1273463247492,17.0193
1273463307492,17.0582
1273463367492,17.0564
1273463427492,17.1076
1273463487492,17.0125
1273463547492,17.0162
1273463607492,17.0881
1273463667492,17.0381
1273463727492,17.0749
1273463787492,17.0270
1273463847492,17.0225
1273463907492,17.1038
1273463967492,17.1193
1273464027501,17.0351
1273464087501,17.0396
1273464147501,17.0537
1273464207501,17.0975
1273464267501,17.0450
1273464327501,16.9850
1273464387501,17.0025
1273464447501,16.9575
1273464507501,16.9793
1273464567501,17.0441
1273464627501,17.0172
1273464687501,17.0203
1273464747501,17.0437
1273464807501,16.9827
1273464867501,17.0135
1273464927501,17.0085
1273464987501,17.0061
1273465047501,16.9709
1273465107501,16.9388
1273465167501,16.9913
1273465227501,16.9247
1273465287501,16.9883
1273465347501,17.0019
1273465407501,16.9511
1273465467501,17.0267
1273465527501,16.9960
1273465587501,16.9752
1273465647501,16.9826
1273465707501,16.9301
1273465767501,16.8879
1273465827501,16.9388
1273465887501,16.9340
1273465947501,16.9290
1273466007501,16.9063
1273466067501,16.9410
1273466127501,16.9502
1273466187501,16.9575
1273466247501,16.9661
1273466307501,16.9172
1273466367501,17.0247
1273466427501,16.9566
1273466487501,16.9505
1273466547501,16.9434
1273466607501,16.9607
1273466667501,16.9503
1273466727501,16.9798
1273466787501,16.9718
1273466847501,16.9338
1273466907501,16.9756
1273466967501,16.9483
1273467027501,16.9260
1273467087501,16.9143
1273467147501,16.9903
1273467207501,16.9989
1273467267501,16.9970
1273467327501,16.9932
1273467387501,16.9930
1273467447501,16.9572
1273467507501,17.0378
1273467567501,16.9351
1273467627510,17.0494
1273467687510,17.0355
1273467747510,17.0357
1273467807510,16.9926
1273467867510,16.9525
1273467927510,17.0240
1273467987510,16.9991
1273468047510,17.0111
1273468107510,17.0352
1273468167510,16.9432
1273468227510,16.9863
1273468287510,17.0771
1273468347510,17.0076
1273468407510,16.9533
1273468467510,16.9902
1273468527510,16.9914
1273468587510,16.9594
1273468647510,17.0002
1273468707510,17.0248
1273468767510,17.0024
1273468827510,16.9714
1273468887510,16.9584
1273468947510,16.9885
1273469007510,16.9770
1273469067510,16.9922
1273469127510,17.0395
1273469187510,17.0552
1273469247510,16.9614
1273469307510,16.9622
1273469367510,17.0020
1273469427510,17.0725
1273469487510,16.9860
1273469547510,16.9732
1273469607510,16.9567
1273469667510,16.9630
1273469727510,16.9423
1273469787510,16.9527
1273469847510,16.8899
1273469907510,17.0012
1273469967510,16.9985
1273470027510,16.9015
1273470087510,16.9933
1273470147510,16.9460
1273470207510,16.9983
1273470267510,16.9372
1273470327510,16.9813
1273470387510,17.0225
1273470447510,16.9550
1273470507510,16.9359
1273470567510,16.9428
1273470627510,16.9807
1273470687510,16.9168
1273470747510,16.9415
1273470807510,16.9080
1273470867510,16.8853
1273470927510,16.9732
1273470987510,16.8703
1273471047510,16.9499
1273471107510,16.9119
1273471167510,16.9559
1273471227519,16.8629
1273471287519,16.9166
1273471347519,16.9613
1273471407519,16.9876
1273471467519,16.9221
1273471527519,16.9328
1273471587519,16.8994
1273471647519,16.9045
1273471707519,16.9321
1273471767519,16.9668
1273471827519,16.8840
1273471887519,16.9811
1273471947519,16.9290
1273472007519,16.9361
1273472067519,16.9416
1273472127519,16.9250
1273472187519,16.9325
1273472247519,16.9252
1273472307519,16.9373
1273472367519,16.9653
1273472427519,16.9031
1273472487519,17.0128
1273472547519,16.9517
1273472607519,16.8998
1273472667519,16.9136
1273472727519,16.8847
1273472787519,16.8801
1273472847519,16.9259
1273472907519,16.9577
1273472967519,16.9040
1273473027519,16.9546
1273473087519,16.9055
1273473147519,16.9070
1273473207519,16.8582
1273473267519,16.8685
1273473327519,16.8564
1273473387519,16.8904
1273473447519,16.8747
1273473507519,16.8536
1273473567519,16.8852
1273473627519,16.9211
1273473687519,16.8986
1273473747519,16.8817
1273473807519,16.9857
1273473867519,16.9773
1273473927519,16.8764
1273473987519,16.8405
1273474047519,16.8912
1273474107519,16.8838
1273474167519,16.8686
1273474227519,16.8908
1273474287519,16.8142
1273474347519,16.9134
1273474407519,16.8675
1273474467519,16.9234
1273474527519,16.9086
1273474587519,16.8663
1273474647519,16.9007
1273474707519,16.8347
1273474767519,16.8091
1273474827528,16.9031
1273474887528,16.9039
1273474947528,16.8874
1273475007528,16.8963
1273475067528,16.8169
1273475127528,16.8663
1273475187528,16.8231
1273475247528,16.8725
1273475307528,16.8615
1273475367528,16.8842
1273475427528,16.9602
1273475487528,16.9106
1273475547528,16.9104
1273475607528,16.9244
1273475667528,16.8856
1273475727528,16.9287
1273475787528,16.9411
1273475847528,16.8590
1273475907528,16.9400
1273475967528,16.8894
1273476027528,16.8354
1273476087528,16.9202
1273476147528,16.9097
1273476207528,16.9271
1273476267528,16.9232
1273476327528,16.8697
1273476387528,16.9176
1273476447528,16.9089
1273476507528,16.8285
1273476567528,16.8951
1273476627528,16.8644
1273476687528,16.9054
1273476747528,16.9469
1273476807528,16.8595
1273476867528,16.8579
1273476927528,16.8700
1273476987528,16.8558
1273477047528,16.8531
1273477107528,16.8257
1273477167528,16.8942
1273477227528,16.9030
1273477287528,16.8207
1273477347528,16.8072
1273477407528,16.8402
1273477467528,16.8363
1273477527528,16.7918
1273477587528,16.8457
1273477647528,16.8309
1273477707528,16.8241
1273477767528,16.8365
1273477827528,16.7966
1273477887528,16.8213
1273477947528,16.7999
1273478007528,16.8387
1273478067528,16.8395
1273478127528,16.8906
1273478187528,16.9415
1273478247528,16.8624
1273478307528,16.8361
1273478367528,16.8457
1273478427537,16.8225
1273478487537,16.8241
1273478547537,16.8382
1273478607537,16.8259
1273478667537,16.7978
1273478727537,16.8795
1273478787537,16.8445
1273478847537,16.8440
1273478907537,16.8257
1273478967537,16.8415
1273479027537,16.8291
1273479087537,16.8863
1273479147537,16.8653
1273479207537,16.8789
1273479267537,16.8571
1273479327537,16.9347
1273479387537,16.8481
1273479447536,16.7713
1273479507536,16.8445
1273479567536,16.9338
1273479627536,16.9085
1273479687537,16.9111
1273479747537,16.9187
1273479807537,16.8451
1273479867537,16.8362
1273479927537,16.8592
1273479987537,16.8853
1273480047537,16.8394
1273480107537,16.8441
1273480167537,16.9068
1273480227537,16.8538
1273480287537,16.8313
1273480347537,16.8162
1273480407537,16.9005
1273480467537,16.8781
1273480527537,16.7727
1273480587537,16.8801
1273480647537,16.8605
1273480707537,16.8403
1273480767537,16.8632
1273480827536,16.8947
1273480887536,16.8489
1273480947536,16.8393
1273481007537,16.7966
1273481067537,16.8459
1273481127537,16.8803
1273481187537,16.8475
1273481247537,16.8133
1273481307537,16.7917
1273481367537,16.8117
1273481427537,16.8805
1273481487537,16.8458
1273481547537,16.8258
1273481607537,16.8401
1273481667537,16.8507
1273481727537,16.8803
1273481787537,16.8923
1273481847537,16.8329
1273481907537,16.8261
1273481967537,16.8836
1273482027545,16.8183
1273482087545,16.8831
1273482147545,16.8504
1273482207545,16.8377
1273482267545,16.8672
1273482327545,16.8227
1273482387545,16.8157
1273482447545,16.8799
1273482507545,16.8459
1273482567545,16.8787
1273482627545,16.9038
1273482687545,16.8534
1273482747545,16.7841
1273482807545,16.8295
1273482867545,16.8455
1273482927545,16.7882
1273482987545,16.7655
1273483047545,16.8195
1273483107545,16.8729
1273483167545,16.8516
1273483227545,16.8964
1273483287545,16.8959
1273483347545,16.8315
1273483407545,16.8014
1273483467545,16.8755
1273483527545,16.8599
1273483587545,16.8250
1273483647545,16.8693
1273483707545,16.8160
1273483767545,16.8482
1273483827545,16.8411
1273483887545,16.9113
1273483947545,16.8418
1273484007545,16.9090
1273484067545,16.8502
1273484127545,16.8248
1273484187545,16.8345
1273484247545,16.9183
1273484307545,16.9142
1273484367545,16.8411
1273484427545,16.8776
1273484487545,16.9443
1273484547545,16.8724
1273484607545,16.8570
1273484667545,16.8741
1273484727545,16.8114
1273484787545,16.8040
1273484847545,16.8325
1273484907545,16.7743
1273484967545,16.8174
1273485027545,16.7837
1273485087545,16.8104
1273485147545,16.8365
1273485207545,16.8083
1273485267545,16.7959
1273485327545,16.8712
1273485387545,16.7664
1273485447545,16.8236
1273485507545,16.8063
1273485567545,16.8404
1273485627554,16.8119
1273485687554,16.7683
1273485747554,16.8288
1273485807554,16.8059
1273485867554,16.8495
1273485927554,16.8244
1273485987554,16.8561
1273486047554,16.8246
1273486107554,16.7899
1273486167554,16.8138
1273486227554,16.8203
1273486287554,16.8110
1273486347554,16.8101
1273486407554,16.7837
1273486467554,16.8265
1273486527554,16.8459
1273486587554,16.7697
1273486647554,16.7672
1273486707554,16.8138
1273486767554,16.8024
1273486827554,16.8369
1273486887554,16.9348
1273486947554,16.8512
1273487007554,16.7856
1273487067554,16.8350
1273487127554,16.8370
1273487187554,16.8152
1273487247554,16.7903
1273487307554,16.8438
1273487367554,16.8122
1273487427554,16.7709
1273487487554,16.8346
1273487547554,16.8569
1273487607554,16.7908
1273487667554,16.7861
1273487727554,16.7888
1273487787554,16.8004
1273487847554,16.7645
1273487907554,16.8071
1273487967554,16.8080
1273488027554,16.7759
1273488087554,16.8160
1273488147554,16.8417
1273488207554,16.8778
1273488267554,16.8002
1273488327554,16.8272
1273488387554,16.8141
1273488447554,16.7300
1273488507554,16.8055
1273488567554,16.8362
1273488627554,16.7525
1273488687554,16.7435
1273488747554,16.7558
1273488807554,16.7301
1273488867554,16.7793
1273488927554,16.8295
1273488987554,16.7596
1273489047554,16.7851
1273489107554,16.8038
1273489167554,16.8486
1273489227563,16.8264
1273489287563,16.8655
1273489347563,16.8645
1273489407563,16.9070
1273489467563,16.9317
1273489527563,16.9184
1273489587563,17.0165
1273489647563,16.9491
1273489707563,16.8982
1273489767563,16.8784
1273489827563,16.8779
1273489887563,16.9691
1273489947563,16.9241
1273490007563,16.9000
1273490067563,16.9082
1273490127563,16.8656
1273490187563,16.9854
1273490247563,16.8254
1273490307563,16.8670
1273490367563,16.8287
1273490427563,16.8550
1273490487563,16.8601
1273490547563,16.8357
1273490607563,16.7937
1273490667563,16.8068
1273490727563,16.8243
1273490787563,16.8899
1273490847563,16.8865
1273490907563,16.7602
1273490967563,16.7874
1273491027563,16.7775
1273491087563,16.8267
1273491147563,16.8428
1273491207563,16.7673
1273491267563,16.8484
1273491327563,16.8422
1273491387563,16.8075
1273491447563,16.8581
1273491507563,16.8625
1273491567563,16.7974
1273491627563,16.7875
1273491687563,16.8039
1273491747563,16.7990
1273491807563,16.7533
1273491867563,16.8160
1273491927563,16.7284
1273491987563,16.8371
1273492047563,16.8097
1273492107563,16.7706
1273492167563,16.8465
1273492227563,16.8478
1273492287563,16.8323
1273492347563,16.7669
1273492407563,16.8126
1273492467563,16.8308
1273492527563,16.7495
1273492587563,16.8200
1273492647563,16.8385
1273492707563,16.7389
1273492767563,16.8517
1273492827572,16.7682
1273492887572,16.8057
1273492947572,16.7797
1273493007572,16.7230
1273493067572,16.7274
1273493127572,16.8050
1273493187572,16.7467
1273493247572,16.8251
1273493307572,16.7818
1273493367572,16.7517
1273493427572,16.8513
1273493487572,16.7682
1273493547572,16.7573
1273493607572,16.8631
1273493667572,16.7632
1273493727572,16.7457
1273493787572,16.7929
1273493847572,16.8495
1273493907572,16.8128
1273493967572,16.8513
1273494027572,16.8272
1273494087572,16.7865
1273494147572,16.8316
1273494207572,16.7548
1273494267572,16.7809
1273494327572,16.8395
1273494387572,16.8259
1273494447572,16.8507
1273494507572,16.7663
1273494567572,16.8363
1273494627572,16.8383
1273494687572,16.7574
1273494747572,16.7868
1273494807572,16.8362
1273494867572,16.8155
1273494927572,16.7732
1273494987572,16.7664
1273495047572,16.7966
1273495107572,16.7957
1273495167572,16.7358
1273495227572,16.7838
1273495287572,16.8153
1273495347572,16.7784
1273495407572,16.7316
1273495467572,16.7826
1273495527572,16.7796
1273495587572,16.7307
1273495647572,16.7829
1273495707572,16.8285
1273495767572,16.7948
1273495827572,16.8143
1273495887572,16.7995
1273495947572,16.8402
1273496007572,16.7638
1273496067572,16.7514
1273496127572,16.8421
1273496187572,16.8538
1273496247572,16.7675
1273496307572,16.8065
1273496367572,16.7765
1273496427580,16.8179
1273496487580,16.8996
1273497027580,16.8145
1273497087580,16.7905
1273497147580,16.7810
1273497207580,16.8183
1273497267580,16.8827
1273497327580,16.7899
1273497387580,16.8228
1273497447580,16.9092
1273497507580,16.7748
1273497567580,16.8334
1273497627580,16.8824
1273497687580,16.8844
1273497747580,16.8300
1273497807580,16.8343
1273497867580,16.8333
1273497927580,16.7669
1273497987580,16.7974
1273498047580,16.8135
1273498107580,16.8295
1273498167580,16.7932
1273498227580,16.8287
1273498287580,16.8763
1273498347580,16.7864
1273498407580,16.8419
1273498467580,16.8513
1273498527580,16.8853
1273498587580,16.8453
1273498647580,16.8231
1273498707580,16.8438
1273498767580,16.9099
1273498827580,16.8092
1273498887580,16.8297
1273498947580,16.8358
1273499007580,16.8038
1273499067580,16.9023
1273499127580,16.8444
1273499187580,16.9281
1273499247580,16.8737
1273499307580,16.8702
1273499367580,16.8771
1273499427580,16.9071
1273499487580,16.8326
1273499547580,16.9454
1273499607580,16.8764
1273499667580,16.9310
1273499727580,16.9295
1273499787580,16.9049
1273499847580,16.9308
1273499907580,16.9123
1273499967580,16.9437
1273500027603,16.8975
1273500087603,16.9296
1273500147603,16.9226
1273500207603,16.8948
1273500267603,16.9287
1273500327603,16.9727
1273500387603,16.8901
1273500447603,16.8979
1273500507603,16.8706
1273500567603,16.8572
1273500627603,16.9171
1273500687603,16.8840
1273500747603,16.8997
1273500807603,16.9005
1273500867603,16.9497
1273500927603,16.9097
1273500987603,16.9464
1273501047603,16.9251
1273501107603,16.8581
1273501167603,16.9451
1273501227603,16.8935
1273501287603,16.9790
1273501347603,16.9629
1273501407603,16.9078
1273501467603,16.9562
1273501527603,16.9709
1273501587603,16.9927
1273501647603,16.9600
1273501707603,16.9477
1273501767603,17.0254
1273501827603,16.9347
1273501887603,16.9618
1273501947603,16.9360
1273502007603,16.9846
1273502067603,16.9788
1273502127603,16.9128
1273502187603,16.9656
1273502247603,16.9267
1273502307603,16.9845
1273502367603,16.9575
1273502427603,16.9222
1273502487603,17.0030
1273502547603,16.9580
1273502607603,17.0441
1273502667603,17.0019
1273502727603,16.9874
1273502787603,17.0193
1273502847603,16.9722
1273502907603,16.9982
1273502967603,16.9764
1273503027603,16.9718
1273503087603,16.9873
1273503147603,16.9492
1273503207603,16.9605
1273503267603,16.9965
1273503327603,16.9619
1273503387603,16.9543
1273503447603,16.9844
1273503507603,16.9168
1273503567603,16.9454
1273503627612,17.0090
1273503687611,16.9638
1273503747611,16.8805
1273503807611,16.9919
1273503867611,16.9654
1273503927611,16.9167
1273503987611,16.9454
1273504047611,16.9562
1273504107611,16.9028
1273504167611,16.9385
1273504227611,17.0150
1273504287611,16.9417
1273504347611,16.9060
1273504407611,16.8936
1273504467611,16.9438
1273504527611,16.9947
1273504587611,17.0068
1273504647611,17.0101
1273504707611,16.9169
1273504767611,16.9554
1273504827611,17.0228
1273504887611,16.9203
1273504947611,16.9751
1273505007611,17.0168
1273505067611,17.0181
1273505127611,17.0381
1273505187611,16.9134
1273505247611,16.9792
1273505307611,16.9437
1273505367611,16.9613
1273505427611,16.9455
1273505487611,17.0080
1273505547611,16.9868
1273505607611,16.9427
1273505667611,16.9812
1273505727611,16.9725
1273505787611,16.9941
1273505847611,16.9789
1273505907611,17.0168
1273505967611,16.9708
1273506027611,16.9682
1273506087611,17.0415
1273506147611,17.0265
1273506207611,17.0211
1273506267611,17.0223
1273506327612,16.9984
1273506387611,16.9557
1273506447611,16.9531
1273506507611,16.9845
1273506567611,16.9388
1273506627611,17.0738
1273506687611,16.9753
1273506747611,16.9747
1273506807611,16.9445
1273506867611,17.0462
1273506927611,16.9463
1273506987611,17.0146
1273507047611,16.9781
1273507107611,16.9452
1273507167611,17.0026
1273507227620,16.9760
1273507287620,16.9756
1273507347620,16.9707
1273507407620,17.0366
1273507467620,16.9295
1273507527620,16.9550
1273507587620,16.9737
1273507647620,16.9607
1273507707620,16.9832
1273507767620,16.8893
1273507827620,17.0061
1273507887620,16.9605
1273507947620,16.9106
1273508007620,16.9853
1273508067620,16.9465
1273508127620,16.9666
1273508187620,16.9833
1273508247620,17.0115
1273508307620,16.9336
1273508367620,16.9509
1273508427620,16.9751
1273508487620,16.9456
1273508547620,16.9964
1273508607620,16.9642
1273508667620,16.9705
1273508727620,16.9958
1273508787620,16.9257
1273508847620,17.0134
1273508907620,17.0140
1273508967620,16.9958
1273509027620,16.9781
1273509087620,17.0098
1273509147620,16.9328
1273509207620,16.9865
1273509267620,16.9316
1273509327620,17.0190
1273509387620,16.9508
1273509447620,17.0441
1273509507620,16.9655
1273509567620,16.9761
1273509627620,16.8736
1273509687620,17.0211
1273509747620,16.9550
1273509807620,17.0095
1273509867620,16.9623
1273509927620,16.9876
1273509987620,16.9872
1273510047620,16.9761
1273510107620,17.0345
1273510167620,16.9506
1273510227620,17.0109
1273510287620,16.9638
1273510347620,17.0656
1273510407620,16.9559
1273510467620,16.9679
1273510527620,17.0153
1273510587620,17.0203
1273510647620,17.0234
1273510707620,17.0325
1273510767620,16.9904
1273510827628,16.9997
1273510887628,16.9524
1273510947628,16.9883
1273511007628,17.0004
1273511067628,16.9273
1273511127628,16.9255
1273511187628,17.0035
1273511247628,17.0045
1273511307628,17.0417
1273511367628,16.9989
1273511427628,16.9871
1273511487628,16.8912
1273511547628,16.9890
1273511607628,17.0091
1273511667628,16.9813
1273511727628,16.9901
1273511787628,16.9796
1273511847628,16.9058
1273511907628,16.9139
1273511967628,16.9483
1273512027628,16.8402
1273512087628,16.8987
1273512147628,16.8901
1273512207628,16.9366
1273512267628,16.9270
1273512327628,16.9179
1273512387628,16.9475
1273512447628,16.8824
1273512507628,16.8349
1273512567628,16.9326
1273512627628,16.8931
1273512687628,16.9010
1273512747628,16.8627
1273512807628,16.9257
1273512867628,16.9446
1273512927628,16.8088
1273512987628,16.8580
1273513047628,16.8532
1273513107628,16.9261
1273513167628,16.8627
1273513227628,16.8984
1273513287628,16.9116
1273513347628,16.8797
1273513407628,16.9379
1273513467628,16.9155
1273513527628,16.9031
1273513587628,16.9166
1273513647628,16.9114
1273513707628,16.9078
1273513767628,16.9141
1273513827628,16.9436
1273513887628,16.8996
1273513947628,16.9110
1273514007628,16.8802
1273514067628,16.8973
1273514127628,16.8997
1273514187628,16.9091
1273514247628,16.8495
1273514307628,16.8595
1273514367628,16.8526
1273514427637,16.8631
1273514487637,16.8540
1273514547637,16.8846
1273514607637,16.8248
1273514667637,16.8585
1273514727637,16.8946
1273514787637,16.9012
1273514847637,16.8424
1273514907637,16.9495
1273514967637,16.8602
1273515027637,16.9119
1273515087637,16.8778
1273515147637,16.9870
1273515207637,16.9276
1273515267637,16.9018
1273515327637,16.9061
1273515387637,16.9192
1273515447637,16.9041